Погода Верхний Баскунчак

Погода Верхний Баскунчак : погода сейчас, прогноз погоды и архив. Всё, что Вы хотите узнать о погоде Верхний Баскунчак!

Хотите узнать прогноз погоды Верхний Баскунчак? Тогда Вам сюда: Погода Верхний Баскунчак

Поиск расширенной информации на нашем сайте:

Другие новости

Новости СМИ2

Главная страница сайта

Новости сайта

03.07.2017

Напоминаем, что на нашем специализированном сайте Метеоцентр.Азия вы можете получить высокодетализированные автоматические прогнозы погоды по пунктам России, СНГ и мира в авиационном формате (включающие направление и скорость ветра, видимость, явления погоды, количество и форму облачности, нижнюю и верхнюю границу облачности).


Погода Верхний Баскунчак - сегодня

Время (UTC), дата Ветер
(°,м/с) 
Видим.   Явления Облачность Т
(°С)
Тd
(°С)
f(%) Тe
(°С)
Pmin
(гПа)
dP
(гПа)
Po
(мм)
O2
(г/м3)
Тmin Tmax R s Состояние
почвы
03 19.05.18 190 (Ю) 20000 м    ясно 
+17.1 +9.5 61 +17  1015.4  0.6  758  286  +16        сухая 
06 19.05.18 090 (В) 20000 м    9/9 600 м 
[Sc]
+23.1 +10.7 46 +25  1015.2  -0.2  758  280           
09 19.05.18 230 (ЮЗ) 20000 м    6/0 средняя, верхняя 
[Ac trans|Ci sp]
+28.4 +9.5 31 +29  1014.8  -0.3  758  275           
12 19.05.18 200 (Ю) 20000 м    8/5 1000 м верхняя 
[Cu med, cong|Ci sp]
+29.9 +9.3 28 +30  1013.7  -1  757  273           
15 19.05.18 200 (Ю) 20000 м    6/3 1000 м верхняя 
[Cu med, cong|Ci fib]
+28.9 +8.5 28 +29  1013.1  -0.7  757  274    +30.4       
18 19.05.18 200 (Ю) 20000 м    3/3 600 м 
[Sc diur, vesp]
+23.1 +8 38 +23  1013.8  0.7  757  280           
21 19.05.18 210 (ЮЗ) 20000 м    ясно 
+20.1 +10.7 55 +22  1014  0.1  757  282           
00 20.05.18 290 (З) 20000 м    ясно 
+18.6 +9.9 57 +21  1014.1  0.1  757  284           
03 20.05.18 тихо ()   20000 м    ясно 
+22.1 +11 49 +24  1014.8  0.8  758  281  +17.2        сухая 
06 20.05.18 250 (З) 20000 м    6/0 средняя, верхняя 
[Ac trans|Ci fib]
+27.9 +8.7 30 +28  1015.3  0.5  758  276           
09 20.05.18 260 (З) 2{11}  10 км  слаб. ливневой дождь  10/10 600 м кучево-дожд. 
[Cb calv]
+21 +16.2 74 +31  1016.5  1.2  759  281           
12 20.05.18 150 (ЮВ) 10 км  слаб. ливневой дождь  10/10 600 м кучево-дожд. 
[Cb calv]
+23.2 +14.2 57 +30  1016.5  -0.1  759  279           
15 20.05.18 340 (С) 20000 м    9/4 600 м верхняя 
[Sc|Ci fib]
+23.2 +12.8 52 +28  1014.7  -1.7  758  279    +28.6  0.3     
18 20.05.18 090 (В) 20000 м  {ливн. осадки}  4/0 средняя, верхняя 
[Ac trans|Ci fib]
+18.4 +14 76 +27  1015.8  759  284           
21 20.05.18 080 (В) 20000 м    3/0 верхняя 
[Ci fib]
+19.3 +11.7 61 +23  1015.2  -0.6  758  283           
00 21.05.18 110 (В) 20000 м    3/0 верхняя 
[Ci fib]
+16.4 +9.3 63 +17  1015.2  758  287           
03 21.05.18 060 (СВ) 20000 м    3/0 средняя 
[Ac trans]
+18.3 +8.4 52 +19  1015.5  0.3  758  285  +15.5        сухая 
06 21.05.18 090 (В) 20000 м    4/0 верхняя 
[Ci sp]
+27.6 +5.4 24 +28  1015.8  0.4  759  277           
09 21.05.18 140 (ЮВ) 4{10}  20000 м    4/0 верхняя 
[Ci sp]
+32.8 +1.2 13 +33  1014.8  -0.9  758  273           
12 21.05.18 150 (ЮВ) 6-11{12}  10 км  пыльный позёмок  6/0 верхняя 
[Ci sp]
+32.3 -0.5 12 +32  1014.6  -0.2  758  273           
15 21.05.18 130 (ЮВ) 3{12}  20000 м    6/0 верхняя 
[Ci fib]
+30.1 -0.3 14 +30  1015  0.3  758  275    +33.4       
18 21.05.18 130 (ЮВ) 20000 м    9/9 600 м 
[Sc]
+26.2 +0.2 18 +26  1016.2  1.2  759  279           
21 21.05.18 070 (В) 20000 м    10/10 600 м 
[Sc]
+25.1 +2.7 23 +25  1016.7  0.5  759  280           
00 22.05.18 110 (В) 20000 м    9/6 600 м верхняя 
[Sc|Ci sp]
+22.1 +2.4 27 +22  1017.5  0.7  760  283           
03 22.05.18 060 (СВ) 20000 м    9/4 600 м верхняя 
[Sc|Ci sp]
+21.5 +5.6 35 +22  1019  1.5  761  283  +20.8        сухая 
Время (UTC), дата Ветер
(°,м/с) 
Видим.   Явления Облачность Т
(°С)
Тd
(°С)
f(%) Тe
(°С)
Pmin
(гПа)
dP
(гПа)
Po
(мм)
O2
(г/м3)
Тmin Tmax R s Состояние
почвы

Для получения пояснительной информации подведите курсор к названию столбца.

ПОГОДА Верхний Баскунчак - архив

Всё, что Вы хотите узнать о погоде Верхний Баскунчак - удобно и подробно!

Выберите нужную дату (начиная с 1 января 2015* года) и нажмите кнопку "Найти".
Будут отображены архивные сводки погоды по пункту Верхний Баскунчак, начиная с указанной даты.


Отображать данные в формате CSV (для использования в таблицах Excel)


Внимание! Наш архив погоды предназначен исключительно для личного некоммерческого использования в познавательных целях. Если Вам необходимы официальные справки о состоянии погоды (для производственных, юридических, коммерческих и т.п. целей), обращайтесь в органы Росгидромета.

*Примечание: данная дата относится к архиву по метеостанциям СССР (Россия, СНГ, Балтия).
Архив по метеостанциям Зарубежной Европы и Азии (кроме Китая) хранится 10 дней, по другим регионам земного шара (Китай, Африка, Америка, Австралия, Океания) - 1 день.

Верхний Баскунчак - район местоположения метеостанции


Название, широта, долгота, высота метеостанции:
Верхний Баскунчак 48.2°ш. 46.7°д. 34 м над ур. моря [Российская Федерация]

Дополнительная информация

В oтличие oт бoльшинства пoгoдных сайтoв мы публикуем пoдрoбную метеoинфoрмацию в детальнoм прoфессиoнальнoм фoрмате.

Характеристики температуры и влажнoсти вoздуха измеряются на высoте 2 м в тени вдали oт зданий и деревьев.
Скoрoсть ветра измеряется на высoте 10 м (на урoвне рoста челoвека скoрoсть ветра ниже в 1.5-2 раза). Если метеoстанция нахoдится в гoрoде или в лесу, тo скoрoсть ветра занижена на 2-4 м/с пo сравнению с oткрытым местoм. Скoрoсть ветра над акватoриями крупных рек и oзёр, а также на вершинах хoлмoв на 2-5 м/с выше, чем в oбычных услoвиях.
Атмoсфернoе давление в разных тoчках местнoсти мoжет значительнo oтличаться oт давления на метеoстанции, в зависимoсти oт услoвий рельефа (при пoдъёме на 10 м давление пoнижается примернo на 1 мм рт.ст.).